K4CRS-13 Weather Reports


time (UTC)temp
F
wind
direction
speed
knots
gust
knots
rain 1hr
in
rain 24hr
in
rain mn
in
humidity
%
barometer
mb
20260505101351 54 176 0.9 1.7 0.00 0.00 0.00 91 1046.7
20260505100847 54 177 0.9 1.7 0.00 0.00 0.00 91 1046.9
20260505100344 54 188 1.7 1.7 0.00 0.00 0.00 91 1046.8
20260505095840 54 151 0.9 1.7 0.00 0.00 0.00 92 1046.6
20260505095338 53 170 0.9 1.7 0.00 0.00 0.00 93 1046.6
20260505094833 53 184 1.7 1.7 0.00 0.00 0.00 93 1046.4
20260505094331 52 180 0.9 1.7 0.00 0.00 0.00 93 1046.8
20260505093826 53 145 0.0 0.9 0.00 0.00 0.00 93 1046.8
20260505093324 53 153 0.0 0.9 0.00 0.00 0.00 93 1046.5
20260505092820 52 179 0.9 1.7 0.00 0.00 0.00 94 1046.8
20260505092319 52 177 0.0 0.9 0.00 0.00 0.00 94 1046.8
20260505091816 52 166 0.0 0.0 0.00 0.00 0.00 94 1046.6
20260505091314 52 154 0.0 0.0 0.00 0.00 0.00 94 1047.0
20260505090811 52 156 0.0 0.0 0.00 0.00 0.00 93 1046.8
20260505090310 52 163 0.0 0.0 0.00 0.00 0.00 94 1046.7
20260505085806 53 161 0.0 0.0 0.00 0.00 0.00 94 1046.7
20260505085305 52 172 0.9 1.7 0.00 0.00 0.00 95 1047.0
20260505084801 52 171 0.9 1.7 0.00 0.00 0.00 95 1047.1
20260505084301 52 172 0.0 0.9 0.00 0.00 0.00 95 1047.1
20260505083757 52 158 0.0 0.0 0.00 0.00 0.00 95 1046.8
20260505083254 51 168 0.9 0.9 0.00 0.00 0.00 95 1046.9
20260505082750 51 171 0.0 0.0 0.00 0.00 0.00 95 1046.9
20260505082247 51 168 0.0 0.0 0.00 0.00 0.00 95 1047.0
20260505081743 51 171 0.0 0.9 0.00 0.00 0.00 95 1047.1
20260505081240 51 167 0.0 0.0 0.00 0.00 0.00 94 1047.3
20260505080737 51 170 0.0 0.0 0.00 0.00 0.00 94 1047.3
20260505080233 51 160 0.0 0.0 0.00 0.00 0.00 94 1047.0
20260505075729 51 163 0.0 0.0 0.00 0.00 0.00 94 1047.4
20260505075226 51 164 0.0 0.0 0.00 0.00 0.00 94 1047.2
20260505074724 51 170 0.0 0.0 0.00 0.00 0.00 94 1047.4
20260505074220 52 159 0.0 0.0 0.00 0.00 0.00 94 1047.2
20260505073718 51 159 0.0 0.0 0.00 0.00 0.00 94 1047.3
20260505073216 51 159 0.0 0.0 0.00 0.00 0.00 94 1047.4
20260505072711 51 159 0.0 0.0 0.00 0.00 0.00 93 1047.3
20260505072208 51 159 0.9 0.9 0.00 0.00 0.00 93 1047.4
20260505071703 51 160 0.0 0.9 0.00 0.00 0.00 93 1047.5
20260505071201 51 170 0.0 0.0 0.00 0.00 0.00 93 1047.5
20260505070659 51 167 0.0 0.9 0.00 0.00 0.00 93 1047.5
20260505070154 52 164 0.0 0.0 0.00 0.00 0.00 92 1047.4
20260505065650 52 163 0.0 0.0 0.00 0.00 0.00 92 1047.6
20260505065148 52 164 0.0 0.0 0.00 0.00 0.00 92 1047.4
20260505064644 52 159 0.0 0.0 0.00 0.00 0.00 92 1047.6
20260505064142 52 156 0.0 0.0 0.00 0.00 0.00 91 1047.3
20260505063640 52 167 0.0 0.0 0.00 0.00 0.00 91 1047.2
20260505063136 52 170 0.0 0.0 0.00 0.00 0.00 91 1047.4
20260505062633 53 157 0.0 0.9 0.00 0.00 0.00 91 1047.6
20260505062129 53 162 0.0 0.0 0.00 0.00 0.00 90 1047.7
20260505061627 53 144 0.9 0.9 0.00 0.00 0.00 90 1047.5
20260505061125 53 146 0.0 0.9 0.00 0.00 0.00 90 1047.6
20260505060622 53 154 0.0 0.0 0.00 0.00 0.00 89 1047.7
20260505060119 53 148 0.0 0.9 0.00 0.00 0.00 89 1047.6
20260505055614 53 138 0.9 0.9 0.00 0.00 0.00 89 1047.6
20260505055111 54 156 0.0 0.9 0.00 0.00 0.00 88 1047.9
20260505054608 54 149 0.0 0.0 0.00 0.00 0.00 88 1047.9
20260505054106 54 146 0.0 0.0 0.00 0.00 0.00 88 1047.6
20260505053603 54 153 0.0 0.9 0.00 0.00 0.00 88 1048.0
20260505053059 55 147 0.0 0.9 0.00 0.00 0.00 87 1048.0
20260505052556 54 160 0.0 0.0 0.00 0.00 0.00 88 1047.7
20260505052054 54 159 0.0 0.0 0.00 0.00 0.00 88 1047.8
20260505051551 54 159 0.0 0.0 0.00 0.00 0.00 88 1047.7
20260505051049 54 162 0.0 0.0 0.00 0.00 0.00 88 1047.8
20260505050547 54 165 0.0 0.0 0.00 0.00 0.00 88 1047.6
20260505041514 55 172 0.0 0.0 0.00 0.00 0.00 85 1047.7
20260505041012 55 168 0.0 0.0 0.00 0.00 0.00 84 1047.6
20260505040509 56 150 0.0 0.9 0.00 0.00 0.00 84 1047.9
20260505040006 56 157 0.0 0.0 0.00 0.00 0.00 84 1047.6
20260505035502 56 155 0.0 0.9 0.00 0.00 0.00 84 1047.6
20260505034959 56 174 0.0 0.0 0.00 0.00 0.00 84 1047.6
20260505034455 56 156 0.0 0.0 0.00 0.00 0.00 84 1047.7
20260505033953 56 168 0.0 0.9 0.00 0.00 0.00 84 1047.7
20260505033449 57 140 0.9 0.9 0.00 0.00 0.00 84 1047.9
20260505032948 57 165 0.0 0.0 0.00 0.00 0.00 84 1047.7
20260505032445 57 166 0.0 0.0 0.00 0.00 0.00 83 1047.8
20260505031941 57 159 0.0 0.0 0.00 0.00 0.00 84 1047.9
20260505031438 57 161 0.0 0.0 0.00 0.00 0.00 84 1047.4
20260505030935 57 169 0.0 0.0 0.00 0.00 0.00 84 1047.7
20260505030431 57 160 0.0 0.0 0.00 0.00 0.00 84 1047.6
20260505025926 57 158 0.0 0.9 0.00 0.00 0.00 83 1047.7
20260505025424 57 169 0.0 0.0 0.00 0.00 0.00 83 1047.4
20260505024923 58 158 0.0 0.0 0.00 0.00 0.00 83 1047.6
20260505024419 58 153 0.0 0.9 0.00 0.00 0.00 83 1047.3
20260505023916 58 153 0.0 0.0 0.00 0.00 0.00 83 1047.6
20260505023413 58 170 0.0 0.0 0.00 0.00 0.00 83 1047.5
20260505022911 58 171 0.0 0.0 0.00 0.00 0.00 83 1047.3
20260505022408 58 143 0.0 0.9 0.00 0.00 0.00 83 1047.5
20260505021905 58 173 0.0 0.0 0.00 0.00 0.00 82 1047.3
20260505021401 59 170 0.0 0.0 0.00 0.00 0.00 81 1047.4
20260505020857 59 164 0.0 0.0 0.00 0.00 0.00 81 1047.3
20260505020353 59 153 0.0 0.0 0.00 0.00 0.00 80 1047.4
20260505015850 59 163 0.0 0.0 0.00 0.00 0.00 80 1047.2
20260505015347 60 158 0.0 0.0 0.00 0.00 0.00 79 1047.4
20260505014844 60 164 0.0 0.0 0.00 0.00 0.00 78 1047.4
20260505014341 61 159 0.0 0.0 0.00 0.00 0.00 77 1047.3
20260505013838 61 156 0.0 0.9 0.00 0.00 0.00 75 1047.3
20260505013335 61 166 0.0 0.0 0.00 0.00 0.00 74 1047.1
20260505012833 62 163 0.0 0.0 0.00 0.00 0.00 74 1047.2
20260505012331 62 166 0.0 0.0 0.00 0.00 0.00 73 1047.1
20260505011826 63 168 0.0 0.0 0.00 0.00 0.00 71 1047.0
20260505011324 63 168 0.0 0.9 0.00 0.00 0.00 70 1047.2
20260505010819 64 165 0.0 0.0 0.00 0.00 0.00 69 1047.1
20260505010315 64 149 0.0 0.0 0.00 0.00 0.00 67 1047.0
20260505005812 64 156 0.0 0.0 0.00 0.00 0.00 67 1047.2
20260505005309 64 162 0.0 0.0 0.00 0.00 0.00 66 1047.2
20260505004807 65 166 0.0 0.0 0.00 0.00 0.00 65 1046.8
20260505004302 66 163 0.0 0.0 0.00 0.00 0.00 64 1047.0
20260505003800 67 173 0.0 0.0 0.00 0.00 0.00 63 1046.9
20260505003257 67 171 0.0 0.0 0.00 0.00 0.00 60 1046.9
20260505002754 68 171 0.0 0.0 0.00 0.00 0.00 58 1046.8
20260505002251 70 169 0.0 0.0 0.00 0.00 0.00 56 1046.9
20260505001749 71 169 0.0 0.9 0.00 0.00 0.00 55 1046.8
20260505001246 71 170 0.9 0.9 0.00 0.00 0.00 53 1046.8
20260505000743 72 182 1.7 1.7 0.00 0.00 0.00 51 1046.8
20260505000241 73 176 0.9 1.7 0.00 0.00 0.00 50 1046.8
20260504235737 74 167 0.9 1.7 0.00 0.00 0.00 48 1046.6
20260504235233 74 184 1.7 2.6 0.00 0.00 0.00 47 1046.9
20260504234730 74 181 2.6 4.3 0.00 0.00 0.00 46 1046.7
20260504234228 75 182 2.6 4.3 0.00 0.00 0.00 46 1046.9
20260504233724 75 171 0.0 2.6 0.00 0.00 0.00 45 1047.0
20260504233220 75 181 1.7 4.3 0.00 0.00 0.00 45 1046.9
20260504232717 75 181 1.7 2.6 0.00 0.00 0.00 45 1046.8
20260504232214 76 181 2.6 2.6 0.00 0.00 0.00 44 1046.8
20260504231711 76 193 2.6 4.3 0.00 0.00 0.00 44 1047.1
20260504231207 76 180 2.6 2.6 0.00 0.00 0.00 43 1046.9
20260504230703 76 179 3.5 4.3 0.00 0.00 0.00 42 1046.8
20260504230202 76 196 1.7 4.3 0.00 0.00 0.00 42 1047.0
20260504225700 77 175 2.6 2.6 0.00 0.00 0.00 44 1047.0
20260504225155 77 156 2.6 4.3 0.00 0.00 0.00 42 1047.1
20260504224653 77 189 1.7 1.7 0.00 0.00 0.00 43 1047.0
20260504224150 76 180 2.6 4.3 0.00 0.00 0.00 43 1047.2
20260504223647 76 167 1.7 4.3 0.00 0.00 0.00 42 1047.1
20260504223142 77 185 3.5 4.3 0.00 0.00 0.00 43 1047.1
20260504222640 78 178 3.5 6.1 0.00 0.00 0.00 42 1047.0
20260504222136 78 183 2.6 4.3 0.00 0.00 0.00 42 1047.0
20260504221634 78 165 1.7 4.3 0.00 0.00 0.00 41 1047.3
20260504221131 78 141 0.9 1.7 0.00 0.00 0.00 42 1047.3
20260504220627 77 186 2.6 5.2 0.00 0.00 0.00 42 1047.3
20260504220125 77 163 2.6 4.3 0.00 0.00 0.00 43 1047.2
20260504215621 77 185 2.6 4.3 0.00 0.00 0.00 43 1047.3
20260504215119 77 181 4.3 6.1 0.00 0.00 0.00 43 1047.5
20260504214614 77 203 2.6 4.3 0.00 0.00 0.00 45 1047.5
20260504214111 79 192 2.6 2.6 0.00 0.00 0.00 44 1047.4
20260504213607 78 179 0.9 4.3 0.00 0.00 0.00 43 1047.4
20260504213104 78 190 2.6 7.0 0.00 0.00 0.00 41 1047.5
20260504212600 79 203 2.6 5.2 0.00 0.00 0.00 42 1047.2
20260504212058 79 186 1.7 2.6 0.00 0.00 0.00 42 1047.5
20260504211554 79 196 2.6 6.1 0.00 0.00 0.00 41 1047.6
20260504211051 79 197 1.7 1.7 0.00 0.00 0.00 42 1047.3
20260504210549 79 197 2.6 4.3 0.00 0.00 0.00 42 1047.5
20260504210045 79 182 1.7 1.7 0.00 0.00 0.00 42 1047.6
20260504205543 79 143 2.6 4.3 0.00 0.00 0.00 42 1047.7
20260504205041 79 180 3.5 6.1 0.00 0.00 0.00 39 1047.7
20260504204538 79 156 2.6 5.2 0.00 0.00 0.00 40 1048.0
20260504204037 79 196 0.9 1.7 0.00 0.00 0.00 41 1047.9
20260504203535 79 150 4.3 7.0 0.00 0.00 0.00 40 1048.1
20260504203032 79 173 3.5 6.1 0.00 0.00 0.00 39 1048.2
20260504202527 79 175 3.5 5.2 0.00 0.00 0.00 40 1048.1
20260504202025 80 181 3.5 4.3 0.00 0.00 0.00 39 1048.2
20260504201521 79 193 3.5 5.2 0.00 0.00 0.00 40 1048.3
20260504201020 79 202 1.7 4.3 0.00 0.00 0.00 42 1048.7
20260504200515 80 195 1.7 6.1 0.00 0.00 0.00 39 1048.2
20260504200012 80 247 2.6 6.1 0.00 0.00 0.00 38 1048.3
20260504195508 81 199 4.3 7.0 0.00 0.00 0.00 39 1048.3
20260504195005 81 180 2.6 2.6 0.00 0.00 0.00 40 1048.4
20260504194501 80 193 0.9 2.6 0.00 0.00 0.00 43 1048.9
20260504193957 80 172 2.6 4.3 0.00 0.00 0.00 39 1048.7
20260504193454 80 191 0.9 1.7 0.00 0.00 0.00 41 1048.7
20260504192953 80 193 1.7 1.7 0.00 0.00 0.00 44 1048.9
20260504192450 81 163 0.0 0.9 0.00 0.00 0.00 45 1048.9
20260504191949 80 195 2.6 2.6 0.00 0.00 0.00 43 1048.7
20260504191446 80 199 2.6 2.6 0.00 0.00 0.00 42 1048.9
20260504190941 80 211 0.9 1.7 0.00 0.00 0.00 46 1048.9
20260504190438 80 218 0.9 4.3 0.00 0.00 0.00 45 1048.7
20260504185934 79 197 1.7 2.6 0.00 0.00 0.00 45 1049.0
20260504185432 78 176 2.6 2.6 0.00 0.00 0.00 44 1049.3
20260504184927 78 203 4.3 7.0 0.00 0.00 0.00 44 1049.2
20260504184423 80 230 2.6 4.3 0.00 0.00 0.00 43 1049.2
20260504183920 79 168 1.7 4.3 0.00 0.00 0.00 47 1049.1
20260504183417 78 179 0.0 2.6 0.00 0.00 0.00 49 1049.5
20260504182915 78 186 2.6 2.6 0.00 0.00 0.00 47 1049.4
20260504182411 77 188 3.5 5.2 0.00 0.00 0.00 50 1049.4
20260504181908 77 171 2.6 2.6 0.00 0.00 0.00 53 1049.4
20260504181406 75 172 0.9 1.7 0.00 0.00 0.00 51 1049.6
20260504180904 75 260 4.3 4.3 0.00 0.00 0.00 52 1049.7
20260504180403 75 155 2.6 2.6 0.00 0.00 0.00 52 1049.7
20260504175901 78 255 6.1 7.8 0.00 0.00 0.00 45 1049.7
20260504175357 78 191 1.7 4.3 0.00 0.00 0.00 47 1049.9
20260504174855 77 189 0.9 4.3 0.00 0.00 0.00 49 1050.0
20260504174352 77 186 3.5 4.3 0.00 0.00 0.00 49 1049.9
20260504173849 76 187 0.9 1.7 0.00 0.00 0.00 52 1050.0
20260504173346 77 171 4.3 5.2 0.00 0.00 0.00 48 1050.2
20260504172843 77 193 1.7 1.7 0.00 0.00 0.00 52 1050.0
20260504172339 76 178 0.0 2.6 0.00 0.00 0.00 54 1050.3
20260504171835 76 218 6.1 9.6 0.00 0.00 0.00 49 1050.5
20260504171332 76 178 2.6 4.3 0.00 0.00 0.00 50 1050.6
20260504170830 77 180 0.9 5.2 0.00 0.00 0.00 50 1050.3
20260504170326 78 187 1.7 2.6 0.00 0.00 0.00 53 1050.5
20260504160245 73 229 0.9 4.3 0.00 0.00 0.00 55 1051.4
20260504150710 71 164 0.9 1.7 0.00 0.00 0.00 58 1051.6
20260504150207 70 180 0.9 4.3 0.00 0.00 0.00 59 1051.7
20260504141136 68 158 2.6 2.6 0.00 0.00 0.00 63 1051.7
20260504140633 67 180 0.9 1.7 0.00 0.00 0.00 62 1051.5
20260504140128 66 180 1.7 1.7 0.00 0.00 0.00 64 1051.8
20260504130556 59 159 0.0 0.0 0.00 0.00 0.00 83 1052.0
20260504110444 43 161 0.0 0.0 0.00 0.00 0.00 99 1051.3